Location: Courçay
(47.2523°N, 0.8761°E)
Time: 23:35:32
(UTC+00:00)

IRAS Rocket - Pass Details

Date: 18 November 2025
Orbit: 845 x 876 km, 100.1° (Epoch: 04 December)

Event Time Altitude Azimuth Distance (km) Brightness Sun altitude
Rises 17:35:20 0° 142° (SE) 3,437 7.1 -13.1°
Reaches altitude 10° 17:37:47 10° 137° (SE) 2,499 6.4 -13.5°
Maximum altitude 17:43:03 46° 65° (ENE) 1,142 4.5 -14.3°
Drops below altitude 10° 17:48:17 10° 354° (N) 2,495 6.6 -15.2°
Sets 17:50:44 0° 349° (NNW) 3,431 7.4 -15.6°
